TimeCDT,TemperatureF,Dew PointF,Humidity,Sea Level PressureIn,VisibilityMPH,Wind Direction,Wind SpeedMPH,Gust SpeedMPH,PrecipitationIn,Events,Conditions,WindDirDegrees,DateUTC
12:53 AM,30.9,26.1,82,30.47,10.0,Calm,Calm,-,N/A,,Clear,0,2013-10-25 05:53:00
1:53 AM,32.0,25.0,75,30.47,10.0,Calm,Calm,-,N/A,,Clear,0,2013-10-25 06:53:00
2:53 AM,30.0,24.1,79,30.48,10.0,Calm,Calm,-,N/A,,Clear,0,2013-10-25 07:53:00
3:53 AM,30.9,25.0,79,30.48,10.0,SSW,3.5,-,N/A,,Clear,200,2013-10-25 08:53:00
4:53 AM,28.0,24.1,85,30.48,10.0,South,3.5,-,N/A,,Clear,180,2013-10-25 09:53:00
5:53 AM,28.0,24.1,85,30.49,10.0,South,3.5,-,N/A,,Clear,170,2013-10-25 10:53:00
6:53 AM,27.0,24.1,89,30.50,10.0,South,4.6,-,N/A,,Clear,170,2013-10-25 11:53:00
7:53 AM,26.1,23.0,88,30.49,10.0,South,3.5,-,N/A,,Clear,180,2013-10-25 12:53:00
8:53 AM,33.1,28.9,85,30.50,10.0,South,4.6,-,N/A,,Clear,170,2013-10-25 13:53:00
9:53 AM,41.0,30.9,67,30.50,10.0,South,9.2,-,N/A,,Clear,180,2013-10-25 14:53:00
10:53 AM,46.9,27.0,46,30.48,10.0,South,12.7,19.6,N/A,,Clear,180,2013-10-25 15:53:00
11:53 AM,50.0,26.1,39,30.46,10.0,South,13.8,-,N/A,,Clear,190,2013-10-25 16:53:00
12:53 PM,52.0,23.0,32,30.42,10.0,South,16.1,-,N/A,,Clear,190,2013-10-25 17:53:00
1:53 PM,54.0,21.9,29,30.38,10.0,SSW,11.5,20.7,N/A,,Clear,200,2013-10-25 18:53:00
2:53 PM,55.9,21.9,27,30.35,10.0,South,11.5,-,N/A,,Clear,190,2013-10-25 19:53:00
3:53 PM,55.9,21.9,27,30.31,10.0,South,10.4,18.4,N/A,,Clear,180,2013-10-25 20:53:00
4:53 PM,55.0,21.9,28,30.27,10.0,South,10.4,-,N/A,,Clear,170,2013-10-25 21:53:00
5:53 PM,53.1,24.1,32,30.26,10.0,South,9.2,-,N/A,,Clear,170,2013-10-25 22:53:00
6:53 PM,46.0,25.0,44,30.25,10.0,South,5.8,-,N/A,,Clear,170,2013-10-25 23:53:00
7:53 PM,44.1,26.1,49,30.23,10.0,South,6.9,-,N/A,,Clear,180,2013-10-26 00:53:00
8:53 PM,44.1,27.0,51,30.21,10.0,South,6.9,-,N/A,,Clear,180,2013-10-26 01:53:00
9:53 PM,45.0,27.0,49,30.21,10.0,South,9.2,-,N/A,,Clear,190,2013-10-26 02:53:00
10:53 PM,48.0,28.9,48,30.19,10.0,SSW,9.2,-,N/A,,Overcast,200,2013-10-26 03:53:00
11:53 PM,48.0,30.9,52,30.17,10.0,SSW,12.7,-,N/A,,Partly Cloudy,210,2013-10-26 04:53:00